TimeEDT,TemperatureF,Dew PointF,Humidity,Sea Level PressureIn,VisibilityMPH,Wind Direction,Wind SpeedMPH,Gust SpeedMPH,PrecipitationIn,Events,Conditions,WindDirDegrees,DateUTC
12:53 AM,57.9,57.0,97,30.04,10.0,Calm,Calm,-,N/A,,Mostly Cloudy,0,2012-10-03 04:53:00
1:53 AM,57.9,57.0,97,30.05,10.0,Calm,Calm,-,N/A,,Mostly Cloudy,0,2012-10-03 05:53:00
2:53 AM,57.0,55.9,96,30.05,10.0,Calm,Calm,-,N/A,,Mostly Cloudy,0,2012-10-03 06:53:00
3:53 AM,57.0,55.9,96,30.06,10.0,Calm,Calm,-,N/A,,Mostly Cloudy,0,2012-10-03 07:53:00
4:53 AM,55.9,55.0,97,30.07,10.0,NNE,3.5,-,N/A,,Mostly Cloudy,20,2012-10-03 08:53:00
5:53 AM,54.0,54.0,100,30.09,10.0,Calm,Calm,-,N/A,,Mostly Cloudy,0,2012-10-03 09:53:00
6:53 AM,53.1,53.1,100,30.12,5.0,North,3.5,-,N/A,Fog,Shallow Fog,350,2012-10-03 10:53:00
7:53 AM,57.0,55.0,93,30.13,10.0,Calm,Calm,-,N/A,,Mostly Cloudy,0,2012-10-03 11:53:00
8:53 AM,59.0,54.0,83,30.14,10.0,Calm,Calm,-,N/A,,Mostly Cloudy,0,2012-10-03 12:53:00
9:53 AM,62.1,54.0,75,30.14,10.0,North,4.6,-,N/A,,Mostly Cloudy,360,2012-10-03 13:53:00
10:53 AM,64.0,53.1,67,30.14,10.0,NE,4.6,-,N/A,,Mostly Cloudy,40,2012-10-03 14:53:00
11:53 AM,66.0,55.0,68,30.14,10.0,Calm,Calm,-,N/A,,Mostly Cloudy,0,2012-10-03 15:53:00
12:53 PM,66.9,54.0,63,30.12,10.0,Calm,Calm,-,N/A,,Mostly Cloudy,0,2012-10-03 16:53:00
1:53 PM,70.0,52.0,53,30.11,10.0,Calm,Calm,-,N/A,,Mostly Cloudy,0,2012-10-03 17:53:00
2:53 PM,70.0,52.0,53,30.11,10.0,Calm,Calm,-,N/A,,Mostly Cloudy,0,2012-10-03 18:53:00
3:53 PM,69.1,54.0,58,30.11,10.0,South,3.5,-,N/A,,Mostly Cloudy,180,2012-10-03 19:53:00
4:53 PM,68.0,54.0,61,30.12,10.0,SSW,4.6,-,N/A,,Mostly Cloudy,200,2012-10-03 20:53:00
5:53 PM,64.9,57.9,78,30.13,10.0,Calm,Calm,-,N/A,,Mostly Cloudy,0,2012-10-03 21:53:00
6:53 PM,64.0,55.0,73,30.14,10.0,SSW,9.2,-,N/A,,Overcast,210,2012-10-03 22:53:00
7:53 PM,61.0,57.0,87,30.15,10.0,South,6.9,-,0.00,,Overcast,190,2012-10-03 23:53:00
8:53 PM,60.1,57.0,90,30.16,10.0,Calm,Calm,-,N/A,,Overcast,0,2012-10-04 00:53:00
9:53 PM,60.1,57.9,93,30.17,10.0,Calm,Calm,-,N/A,,Overcast,0,2012-10-04 01:53:00
10:53 PM,60.1,57.9,93,30.18,10.0,Calm,Calm,-,0.00,,Overcast,0,2012-10-04 02:53:00
11:53 PM,60.1,57.9,93,30.19,10.0,Calm,Calm,-,N/A,,Overcast,0,2012-10-04 03:53:00